SCP
0 0 0 0 0 0 0 0 0 0 0 0 0 0 0 0 0 0 0 0 0 0 0 0 -0 -0 0 0 -0 -0 -0 -0 -0 -0 -0 -0 -0 -0 -0 -0 -0 -0 -0 -0 -0 -0 -0 -0 -0
0 0 0 0 0 0 0 0 0 0 0 0 0 0 0 0 0 -0 0 0 0 0 0 0 -0 0 0 0 -0 -0 -0 -0 -0 -0 -0 -0 -0 -0 -0 -0 -0 -0 -0 -0 -0 -0 -0 -0 -0
0 0 0 0 0 0 0 0 0 0 0 0 0 0 0 0 0 0 0 -0 0 0 0 0 -0 -0 0 0 0 -0 -0 -0 -0 -0 -0 -0 -0 -0 -0 -0 -0 -0 -0 -0 -0 -0 -0 -0 -0
0 0 0 0 0 0 0 0 0 0 0 0 0 0 0 0 0 0 0 0 0 0 0 0 0 0 -0 -0 -0 0 -0 -0 -0 -0 -0 -0 -0 -0 -0 -0 -0 -0 -0 -0 -0 -0 -0 -0 -0
0 0 0 0 0 0 0 0 0 0 0 0 0 0 0 0 0 0 0 0 0 0 0 0 0 0 -0 -0 -0 -0 0 -0 -0 -0 -0 -0 -0 -0 -0 -0 -0 -0 -0 -0 -0 -0 -0 -0 -0
0 0 0 0 0 0 0 0 0 0 0 0 0 0 0 0 0 0 0 0 0 0 0 0 0 0 0 0 -0 -0 -0 -0 -0 -0 -0 -0 -0 -0 -0 -0 -0 -0 -0 -0 -0 -0 -0 -0 -0
0 0 -0 0 0 0 0 0 0 0 0 0 0 0 0 0 0 0 0 0 0 0 0 0 0 0 0 0 0 -0 -0 -0 -0 -0 -0 -0 -0 -0 -0 0 0 0 0 0 0 0 -0 -0 -0
0 -0 0 0 0 0 0 0 0 0 0 0 0 0 0 0 0 0 0 0 0 0 0 0 0 0 0 0 0 0 0 0 0 0 0 0 0 0 0 0 0 0 0 0 0 0 0 0 -0
0 -0 -0 -0 -0 0 0 0 0 0 0 0 0 0 0 0 0 0 0 0 0 0 0 0 0 0 0 0 0 0 0 0 0 0 0 0 0 0 0 0 0 0 0 0 0 0 0 0 0
0 0 -0 -0 -0 0 -0 -0 0 0 0 0 0 0 0 0 0 0 0 0 0 0 0 0 0 0 0 0 0 0 0 0 0 0 0 0 0 0 0 0 0 0 0 0 0 0 0 0 0
0 0 0 0 0 0 0 0 -0 0 0 -0 -0 0 0 0 0 0 0 0 0 0 0 0 0 0 0 0 0 0 0 0 0 0 0 0 0 0 0 0 0 0 0 0 0 0 0 0 0
0 0 0 0 0 0 0 0 0 0 0 -0 0 0 0 0 0 0 0 0 0 0 0 0 0 0 0 0 0 0 0 0 0 0 0 0 0 0 0 0 0 0 0 0 0 0 0 0 0
0 0 0 0 0 0 0 0 0 -0 0 -0 0 0 -0 -0 -0 -0 0 0 0 0 0 0 0 0 0 0 0 0 0 0 0 0 0 0 0 0 0 0 0 0 0 0 0 0 0 0 0
0 0 0 0 0 0 0 0 0 0 0 0 -0 0 -0 0 0 -0 -0 -0 -0 -0 -0 0 0 0 0 0 0 0 0 0 0 0 0 0 0 0 0 0 0 0 0 0 0 0 0 0 0
0 0 0 0 0 0 0 0 0 0 0 0 0 0 0 0 0 -0 0 -0 -0 -0 -0 -0 0 0 0 0 0 0 0 0 0 0 0 0 0 0 0 0 0 0 0 0 0 0 0 0 0
0 0 0 0 0 0 0 0 0 0 0 0 0 0 -0 0 -0 -0 0 0 0 0 -0 -0 0 -0 0 0 0 0 0 0 0 0 0 0 0 0 0 0 0 0 0 0 0 0 0 0 0
0 0 0 0 0 0 0 0 0 0 0 0 0 0 -0 -0 -0 -0 -0 0 0 0 -0 -0 -0 0 0 0 0 0 0 0 0 0 0 0 0 0 0 0 0 0 0 0 0 0 0 0 0
0 0 0 0 0 0 0 0 0 0 0 -0 -0 -0 -0 -0 -0 -0 -0 0 0 0 -0 -0 -0 0 0 0 0 0 0 0 0 0 0 0 0 0 0 0 0 0 0 0 0 0 0 0 0
0 0 0 0 0 0 0 0 0 0 0 0 0 0 0 -0 -0 -0 -0 -0 0 0 0 0 0 0 0 0 0 0 0 0 0 0 0 0 0 0 0 0 0 0 0 0 0 0 0 0 0
0 0 0 0 0 0 0 0 0 0 0 0 0 0 0 0 0 0 -0 -0 -0 -0 -0 -0 0 0 0 0 0 0 0 0 0 0 0 0 0 0 0 0 0 0 0 0 0 0 0 0 0
0 0 0 0 0 0 0 0 0 0 0 0 0 0 0 0 0 0 -0 -0 -0 -0 -0 -0 -0 0 0 0 0 0 0 0 0 0 0 0 0 0 0 0 0 0 0 0 0 0 0 0 0
0 0 0 0 0 0 0 0 0 0 0 0 0 0 0 0 0 0 0 0 0 0 0 0 0 0 0 0 0 0 0 0 0 0 0 0 0 0 0 0 0 0 0 0 0 0 0 0 0
0 0 0 0 0 0 0 0 0 -0 0 0 0 0 0 0 0 0 0 0 0 0 0 0 0 0 0 0 0 0 0 0 0 0 0 0 0 0 0 0 0 0 0 0 0 0 0 0 0
0 0 0 0 0 0 0 0 0 0 0 0 0 0 0 0 0 0 0 0 0 0 0 0 0 0 0 0 0 0 0 0 0 0 0 0 0 0 0 0 0 0 0 0 0 0 0 0 0
0 0 0 0 0 0 0 0 0 0 0 0 0 0 0 0 0 0 0 0 0 0 0 0 0 0 0 0 0 0 0 0 0 0 0 0 0 0 0 0 0 0 0 0 0 0 0 0 0
0 0 0 0 0 0 0 0 0 0 0 0 0 0 0 0 0 0 0 0 0 0 0 0 0 0 0 0 0 0 0 0 0 0 0 0 0 0 0 0 0 0 0 0 0 0 0 0 0
0 0 0 0 0 0 0 0 0 0 0 0 0 0 0 -0 -0 0 0 0 0 0 0 0 0 0 0 0 0 0 0 0 0 0 0 0 0 0 0 0 0 0 0 0 0 0 0 0 0
0 0 0 0 0 0 0 0 0 0 0 -0 0 0 0 -0 -0 -0 -0 -0 0 0 0 0 0 0 0 0 0 0 0 0 0 0 0 0 0 0 0 0 0 0 0 0 0 0 0 0 0
0 0 0 0 0 0 0 0 0 0 0 -0 -0 0 -0 -0 -0 -0 -0 -0 0 0 0 0 0 0 0 0 0 0 0 0 0 0 0 0 0 0 0 0 0 0 0 0 0 0 0 0 0
0 0 0 0 0 0 0 0 0 0 0 0 0 -0 -0 -0 -0 0 0 0 0 0 0 0 0 0 0 0 0 0 0 0 0 0 0 0 0 0 0 0 0 0 0 0 0 0 0 0 0
Wind_Speed_500mb
20 10 6 1 5 4 4 12 8 17 10 15 22 14 11 12 9 2 18 16 22 28 38 24 27 27 25 21 21 24 26 27 29 31 31 28 25 25 25 24 20 13 19 27 23 26 28 26 27
9 13 5 3 7 6 5 13 15 12 8 11 8 10 13 6 18 12 19 14 25 36 49 36 37 27 28 24 24 28 31 30 28 24 20 18 16 17 13 7 2 11 18 20 18 22 24 24 26
13 8 4 7 4 6 7 8 13 10 21 12 6 13 5 5 7 21 19 22 23 34 51 59 63 44 31 29 28 28 28 29 24 19 14 15 13 11 10 9 1 12 14 17 17 19 20 20 20
9 7 4 8 11 7 4 6 13 3 6 15 4 11 8 2 9 12 21 22 25 28 51 58 61 57 38 32 30 28 25 20 17 11 11 7 7 7 9 9 8 9 12 12 14 16 17 17 14
3 3 10 10 6 5 3 6 11 6 2 7 9 5 1 6 9 15 16 27 27 30 42 56 60 57 50 37 30 20 17 9 8 7 8 11 13 11 9 6 6 7 7 9 10 12 14 13 10
10 8 9 7 7 6 3 8 7 7 4 1 6 9 8 10 9 13 14 32 28 36 36 42 52 53 46 43 32 20 13 3 7 8 11 10 8 7 5 4 2 2 3 4 5 9 9 9 8
16 8 8 10 7 4 4 8 6 7 9 5 11 9 8 10 10 16 18 28 28 33 29 33 36 37 30 25 25 15 10 8 9 7 5 4 3 2 1 2 3 2 1 3 6 9 9 10 10
11 8 8 6 5 5 3 3 3 7 6 8 8 10 8 12 13 19 18 16 20 29 26 27 29 26 25 26 22 13 15 13 11 10 7 5 5 4 3 4 3 4 4 4 7 11 13 15 16
15 10 10 13 9 7 3 2 6 5 13 11 11 16 9 12 19 20 22 22 19 22 32 25 24 26 24 26 20 18 20 17 16 14 11 9 8 5 4 6 5 7 8 8 9 13 17 20 20
17 9 5 4 5 3 3 6 8 6 7 11 23 24 20 18 22 25 29 29 24 26 24 27 33 31 29 25 21 25 28 24 22 20 18 14 15 13 10 10 10 10 11 10 11 13 16 20 17
9 15 17 9 10 9 8 6 8 6 12 19 14 21 22 21 24 25 28 34 35 33 31 29 32 34 33 28 30 28 28 27 29 28 25 21 21 23 13 14 12 15 14 12 12 15 17 20 17
12 2 14 33 28 19 10 10 11 23 13 6 17 24 24 22 24 25 27 28 30 34 37 33 31 32 34 39 38 36 33 34 30 29 29 27 23 20 17 13 16 14 13 13 16 17 19 21 18
11 7 2 1 11 15 17 16 13 29 24 29 24 29 28 26 25 26 25 24 25 27 30 31 32 33 33 36 34 35 31 30 28 29 31 28 23 23 19 17 17 15 16 16 16 19 21 22 20
10 16 16 16 11 9 9 11 12 10 16 23 26 27 30 33 31 31 33 28 27 28 31 32 31 33 31 30 31 30 29 29 28 28 25 24 22 21 21 20 20 21 21 21 22 22 22 23 23
18 6 3 10 9 9 11 8 14 14 16 17 20 24 27 31 33 40 32 34 31 29 28 31 30 32 30 29 30 31 30 30 32 29 29 29 29 26 24 24 23 23 24 25 25 25 24 23 24
5 6 7 6 12 6 6 14 7 17 25 27 24 21 25 29 34 34 35 35 34 34 34 30 28 27 31 31 32 30 32 32 31 31 31 31 30 28 28 28 27 28 27 27 27 27 26 25 23
12 6 11 7 6 6 3 14 8 22 25 27 28 26 24 26 31 33 36 38 35 38 39 40 38 38 38 39 37 36 36 36 36 35 35 32 31 31 31 29 29 29 28 26 25 23 24 24 23
12 12 11 11 3 6 11 28 17 39 36 35 32 35 37 34 29 27 32 38 42 42 43 42 43 43 42 40 39 41 40 40 36 34 32 34 35 34 31 30 29 29 31 30 29 29 30 29 28
10 9 12 9 3 16 9 21 27 33 47 39 42 40 42 42 27 27 27 30 38 45 47 44 45 45 47 46 44 45 42 38 36 38 39 38 35 32 32 33 33 31 29 27 28 28 29 31 30
5 7 11 15 9 11 13 30 13 19 27 48 47 47 46 41 35 38 39 38 41 43 46 49 49 47 47 45 44 44 43 45 45 43 43 39 37 37 37 35 34 33 33 33 31 29 28 28 31
6 7 8 10 21 5 16 13 9 3 16 32 44 42 44 48 48 46 46 43 40 48 49 51 50 51 51 49 50 52 52 52 50 51 46 43 44 44 42 40 39 38 38 35 34 34 31 29 28
10 2 6 13 11 3 13 8 11 6 9 13 43 47 51 51 51 53 53 52 48 39 40 45 49 51 51 52 58 61 62 63 57 52 50 54 52 50 49 46 45 45 42 42 39 38 36 35 33
12 6 5 2 7 7 15 7 13 9 12 12 27 52 52 51 55 57 59 55 50 47 44 41 43 51 54 56 62 64 67 65 59 60 61 59 60 60 60 57 55 53 50 48 46 44 41 41 39
12 7 4 3 4 7 9 8 13 9 9 12 11 20 36 44 45 56 58 57 58 55 55 54 53 54 56 60 63 68 71 72 73 72 72 71 70 70 69 68 66 62 61 57 53 50 50 47 43
7 10 8 12 10 8 3 6 18 18 15 9 17 29 29 23 32 41 53 61 63 64 63 64 65 68 67 70 74 77 79 79 82 83 83 82 82 83 82 78 77 73 70 65 62 60 59 55 53
7 4 9 7 3 10 6 10 9 5 22 22 18 21 26 30 31 37 41 50 61 65 68 69 72 74 76 79 87 89 89 92 93 94 93 93 95 92 83 80 82 81 77 74 71 70 67 62 60
5 4 4 12 3 7 8 15 16 7 14 29 32 30 28 35 37 40 40 42 46 55 63 68 71 75 83 88 91 97 101 104 106 105 103 103 102 103 96 88 87 88 85 83 81 79 77 72 67
4 1 4 6 3 8 11 11 12 16 14 14 22 17 31 54 61 47 47 53 58 56 54 57 61 73 82 91 97 103 105 109 113 113 115 115 110 111 111 104 98 96 94 92 91 89 84 81 76
5 2 7 6 7 8 5 12 13 10 13 19 19 38 53 62 55 58 67 70 69 67 65 60 66 71 79 86 90 99 104 106 109 115 118 119 118 118 118 117 111 105 102 100 99 98 94 90 84
5 8 9 8 12 6 7 15 31 29 16 26 41 62 82 73 83 86 86 70 56 53 56 62 61 65 69 74 80 85 93 99 103 107 110 115 121 121 123 121 123 118 113 108 106 106 103 99 94
Wind_Direction_500mb
322 174 159 291 106 181 187 37 34 16 43 352 25 30 77 43 66 198 151 122 110 95 99 133 121 118 127 131 127 120 116 114 113 113 117 122 120 109 95 95 90 59 38 66 71 75 87 92 93
19 132 120 198 116 169 80 36 47 44 339 345 40 16 35 78 103 158 140 128 121 99 99 120 104 138 140 130 131 129 127 129 125 136 137 132 121 114 123 126 78 10 41 66 62 72 84 97 106
75 86 66 112 77 111 110 34 35 72 28 42 85 59 47 3 116 145 144 134 122 108 108 114 95 96 144 152 148 155 149 150 146 158 151 166 136 145 146 176 55 50 63 68 75 83 93 101 114
61 125 83 70 66 44 83 39 351 5 54 48 32 73 61 284 173 173 153 131 128 123 119 127 116 107 129 154 160 168 192 191 192 195 206 152 108 106 108 110 92 67 67 80 84 94 101 107 121
42 48 72 80 108 141 42 359 342 58 42 10 36 73 356 241 234 210 172 150 150 138 128 130 141 147 137 166 170 175 176 193 220 203 135 118 114 109 104 103 93 89 80 79 87 97 116 135 143
89 56 57 93 140 166 119 336 338 36 289 55 113 139 220 226 204 234 216 159 162 152 153 148 152 162 163 170 177 191 198 206 181 158 141 135 127 118 112 107 97 107 112 95 102 116 146 156 175
94 72 81 114 137 135 94 336 44 336 271 252 166 191 193 227 187 210 261 170 169 169 173 166 164 168 174 172 188 188 200 186 181 181 177 164 154 143 239 168 154 159 183 145 143 151 178 185 194
47 78 101 103 194 118 42 31 320 274 267 271 224 229 190 180 195 186 230 217 190 175 184 179 178 183 188 186 191 182 218 205 210 214 206 227 257 266 252 200 181 168 175 165 158 166 180 187 210
65 57 54 7 2 356 48 260 245 245 247 264 239 260 233 198 189 191 190 226 209 214 185 188 187 190 192 197 185 200 225 230 220 223 227 245 246 245 238 238 229 195 175 172 181 180 182 199 223
76 87 122 227 276 243 196 275 299 294 242 254 250 247 259 248 196 194 191 199 211 233 214 195 202 198 200 210 215 221 220 228 233 240 246 240 240 232 231 238 232 224 215 213 220 208 210 225 233
84 144 169 188 189 176 186 224 232 255 261 227 240 253 247 237 227 204 208 195 201 214 236 215 215 212 212 214 228 237 238 228 233 246 240 248 252 241 220 228 231 230 229 218 220 219 209 217 229
80 150 180 173 177 174 194 199 218 215 236 241 240 240 242 239 238 227 218 219 212 198 218 222 225 221 218 225 230 230 233 231 232 234 247 233 220 227 225 238 250 245 242 222 206 204 205 210 217
89 154 287 164 193 190 168 210 231 250 258 257 258 239 235 235 234 236 237 236 237 230 224 228 224 227 224 224 226 228 224 228 228 228 223 231 223 233 231 226 229 227 229 222 215 201 198 196 199
119 155 166 191 217 219 220 230 186 254 213 236 249 246 236 228 227 234 229 230 228 228 229 227 225 225 226 226 224 224 225 222 222 219 217 221 221 221 224 226 225 216 212 213 209 205 200 195 187
147 77 233 229 210 217 210 213 239 197 186 215 243 259 258 251 245 242 237 233 228 222 229 231 226 219 217 217 215 214 216 214 216 212 211 211 212 216 221 219 218 223 218 211 205 201 194 196 189
223 196 6 193 177 204 78 280 313 208 190 206 219 241 262 265 256 251 246 238 229 226 220 219 225 229 225 218 217 211 210 206 206 208 211 216 219 216 218 218 219 218 215 209 208 202 196 191 192
7 328 349 347 196 143 174 272 205 199 209 226 222 226 242 256 256 253 246 243 237 239 235 228 225 224 214 211 215 216 212 211 212 214 220 219 223 225 221 221 222 222 219 220 216 213 209 205 198
323 348 328 304 309 259 239 259 262 217 212 227 233 239 233 232 238 243 246 246 241 236 238 238 235 234 230 225 223 222 218 218 218 223 225 231 230 226 225 225 225 223 220 213 211 208 204 207 206
273 276 299 306 21 351 260 280 269 218 212 227 227 227 240 256 272 259 246 242 241 242 244 244 242 236 233 229 226 225 225 227 231 239 240 236 235 233 229 227 227 225 222 218 215 212 209 206 207
17 335 338 284 315 345 309 304 284 190 222 222 226 228 232 237 242 251 253 248 243 244 242 238 237 234 233 230 229 232 240 250 253 247 240 236 233 234 235 233 231 228 225 221 219 217 215 213 207
46 55 332 262 317 295 322 303 324 19 222 241 242 248 242 236 233 233 237 242 245 241 240 240 240 239 238 236 235 238 244 247 245 242 237 239 244 245 241 237 234 232 231 229 230 229 228 226 222
338 65 312 315 8 326 17 280 323 341 271 231 240 241 242 240 241 246 246 242 242 243 241 242 243 242 242 239 239 239 242 245 243 238 245 251 249 246 245 240 238 237 235 235 234 233 232 233 231
261 348 284 298 6 10 344 53 267 7 320 286 253 249 251 247 241 244 249 257 261 257 253 249 246 245 245 243 242 244 245 245 244 247 251 246 244 244 245 243 240 240 238 238 236 236 237 236 236
304 330 106 6 72 37 284 83 297 333 296 324 325 310 273 260 255 250 255 262 263 263 260 257 253 251 247 247 245 245 247 249 248 246 244 243 245 247 244 243 242 240 240 239 239 239 238 239 239
3 24 354 3 11 230 12 30 247 290 296 289 332 341 343 305 281 269 259 258 262 263 264 264 261 259 257 256 254 252 251 250 250 250 250 250 247 243 242 241 241 241 243 242 240 240 240 240 242
10 88 133 265 279 280 341 249 253 276 348 11 348 347 346 355 330 298 289 279 273 273 271 268 266 266 263 262 262 259 257 256 254 254 252 253 254 253 250 247 245 244 242 242 243 243 243 242 242
305 61 130 101 31 44 268 285 320 6 23 22 24 31 24 25 10 354 330 306 292 286 281 278 276 277 273 271 267 264 262 261 261 259 258 257 257 257 255 251 248 247 245 243 243 243 244 243 244
32 316 62 19 12 307 290 291 239 329 321 358 352 8 347 351 350 344 337 328 319 298 285 275 278 279 280 278 275 272 269 266 265 262 262 262 260 258 258 256 251 248 247 245 244 243 243 242 244
50 40 32 118 144 189 275 257 218 257 274 310 314 329 340 336 341 338 331 324 313 304 293 285 286 286 284 284 286 282 277 274 271 267 266 264 263 261 259 259 257 253 249 246 244 244 244 243 244
201 163 141 117 274 226 210 266 261 281 282 322 331 325 328 330 327 327 329 332 328 321 299 297 297 296 297 297 294 291 288 281 277 275 274 271 267 265 263 261 259 257 254 250 246 244 244 243 242
Wind_Speed_850mb
20 10 6 1 5 4 4 12 8 17 10 15 22 14 11 12 9 2 18 16 22 28 38 24 27 27 25 21 21 24 26 27 29 31 31 28 25 25 25 24 20 13 19 27 23 26 28 26 27
9 13 5 3 7 6 5 13 15 12 8 11 8 10 13 6 18 12 19 14 25 36 49 36 37 27 28 24 24 28 31 30 28 24 20 18 16 17 13 7 2 11 18 20 18 22 24 24 26
13 8 4 7 4 6 7 8 13 10 21 12 6 13 5 5 7 21 19 22 23 34 51 59 63 44 31 29 28 28 28 29 24 19 14 15 13 11 10 9 1 12 14 17 17 19 20 20 20
9 7 4 8 11 7 4 6 13 3 6 15 4 11 8 2 9 12 21 22 25 28 51 58 61 57 38 32 30 28 25 20 17 11 11 7 7 7 9 9 8 9 12 12 14 16 17 17 14
3 3 10 10 6 5 3 6 11 6 2 7 9 5 1 6 9 15 16 27 27 30 42 56 60 57 50 37 30 20 17 9 8 7 8 11 13 11 9 6 6 7 7 9 10 12 14 13 10
10 8 9 7 7 6 3 8 7 7 4 1 6 9 8 10 9 13 14 32 28 36 36 42 52 53 46 43 32 20 13 3 7 8 11 10 8 7 5 4 2 2 3 4 5 9 9 9 8
16 8 8 10 7 4 4 8 6 7 9 5 11 9 8 10 10 16 18 28 28 33 29 33 36 37 30 25 25 15 10 8 9 7 5 4 3 2 1 2 3 2 1 3 6 9 9 10 10
11 8 8 6 5 5 3 3 3 7 6 8 8 10 8 12 13 19 18 16 20 29 26 27 29 26 25 26 22 13 15 13 11 10 7 5 5 4 3 4 3 4 4 4 7 11 13 15 16
15 10 10 13 9 7 3 2 6 5 13 11 11 16 9 12 19 20 22 22 19 22 32 25 24 26 24 26 20 18 20 17 16 14 11 9 8 5 4 6 5 7 8 8 9 13 17 20 20
17 9 5 4 5 3 3 6 8 6 7 11 23 24 20 18 22 25 29 29 24 26 24 27 33 31 29 25 21 25 28 24 22 20 18 14 15 13 10 10 10 10 11 10 11 13 16 20 17
9 15 17 9 10 9 8 6 8 6 12 19 14 21 22 21 24 25 28 34 35 33 31 29 32 34 33 28 30 28 28 27 29 28 25 21 21 23 13 14 12 15 14 12 12 15 17 20 17
12 2 14 33 28 19 10 10 11 23 13 6 17 24 24 22 24 25 27 28 30 34 37 33 31 32 34 39 38 36 33 34 30 29 29 27 23 20 17 13 16 14 13 13 16 17 19 21 18
11 7 2 1 11 15 17 16 13 29 24 29 24 29 28 26 25 26 25 24 25 27 30 31 32 33 33 36 34 35 31 30 28 29 31 28 23 23 19 17 17 15 16 16 16 19 21 22 20
10 16 16 16 11 9 9 11 12 10 16 23 26 27 30 33 31 31 33 28 27 28 31 32 31 33 31 30 31 30 29 29 28 28 25 24 22 21 21 20 20 21 21 21 22 22 22 23 23
18 6 3 10 9 9 11 8 14 14 16 17 20 24 27 31 33 40 32 34 31 29 28 31 30 32 30 29 30 31 30 30 32 29 29 29 29 26 24 24 23 23 24 25 25 25 24 23 24
5 6 7 6 12 6 6 14 7 17 25 27 24 21 25 29 34 34 35 35 34 34 34 30 28 27 31 31 32 30 32 32 31 31 31 31 30 28 28 28 27 28 27 27 27 27 26 25 23
12 6 11 7 6 6 3 14 8 22 25 27 28 26 24 26 31 33 36 38 35 38 39 40 38 38 38 39 37 36 36 36 36 35 35 32 31 31 31 29 29 29 28 26 25 23 24 24 23
12 12 11 11 3 6 11 28 17 39 36 35 32 35 37 34 29 27 32 38 42 42 43 42 43 43 42 40 39 41 40 40 36 34 32 34 35 34 31 30 29 29 31 30 29 29 30 29 28
10 9 12 9 3 16 9 21 27 33 47 39 42 40 42 42 27 27 27 30 38 45 47 44 45 45 47 46 44 45 42 38 36 38 39 38 35 32 32 33 33 31 29 27 28 28 29 31 30
5 7 11 15 9 11 13 30 13 19 27 48 47 47 46 41 35 38 39 38 41 43 46 49 49 47 47 45 44 44 43 45 45 43 43 39 37 37 37 35 34 33 33 33 31 29 28 28 31
6 7 8 10 21 5 16 13 9 3 16 32 44 42 44 48 48 46 46 43 40 48 49 51 50 51 51 49 50 52 52 52 50 51 46 43 44 44 42 40 39 38 38 35 34 34 31 29 28
10 2 6 13 11 3 13 8 11 6 9 13 43 47 51 51 51 53 53 52 48 39 40 45 49 51 51 52 58 61 62 63 57 52 50 54 52 50 49 46 45 45 42 42 39 38 36 35 33
12 6 5 2 7 7 15 7 13 9 12 12 27 52 52 51 55 57 59 55 50 47 44 41 43 51 54 56 62 64 67 65 59 60 61 59 60 60 60 57 55 53 50 48 46 44 41 41 39
12 7 4 3 4 7 9 8 13 9 9 12 11 20 36 44 45 56 58 57 58 55 55 54 53 54 56 60 63 68 71 72 73 72 72 71 70 70 69 68 66 62 61 57 53 50 50 47 43
7 10 8 12 10 8 3 6 18 18 15 9 17 29 29 23 32 41 53 61 63 64 63 64 65 68 67 70 74 77 79 79 82 83 83 82 82 83 82 78 77 73 70 65 62 60 59 55 53
7 4 9 7 3 10 6 10 9 5 22 22 18 21 26 30 31 37 41 50 61 65 68 69 72 74 76 79 87 89 89 92 93 94 93 93 95 92 83 80 82 81 77 74 71 70 67 62 60
5 4 4 12 3 7 8 15 16 7 14 29 32 30 28 35 37 40 40 42 46 55 63 68 71 75 83 88 91 97 101 104 106 105 103 103 102 103 96 88 87 88 85 83 81 79 77 72 67
4 1 4 6 3 8 11 11 12 16 14 14 22 17 31 54 61 47 47 53 58 56 54 57 61 73 82 91 97 103 105 109 113 113 115 115 110 111 111 104 98 96 94 92 91 89 84 81 76
5 2 7 6 7 8 5 12 13 10 13 19 19 38 53 62 55 58 67 70 69 67 65 60 66 71 79 86 90 99 104 106 109 115 118 119 118 118 118 117 111 105 102 100 99 98 94 90 84
5 8 9 8 12 6 7 15 31 29 16 26 41 62 82 73 83 86 86 70 56 53 56 62 61 65 69 74 80 85 93 99 103 107 110 115 121 121 123 121 123 118 113 108 106 106 103 99 94
Wind_Direction_850mb
322 174 159 291 106 181 187 37 34 16 43 352 25 30 77 43 66 198 151 122 110 95 99 133 121 118 127 131 127 120 116 114 113 113 117 122 120 109 95 95 90 59 38 66 71 75 87 92 93
19 132 120 198 116 169 80 36 47 44 339 345 40 16 35 78 103 158 140 128 121 99 99 120 104 138 140 130 131 129 127 129 125 136 137 132 121 114 123 126 78 10 41 66 62 72 84 97 106
75 86 66 112 77 111 110 34 35 72 28 42 85 59 47 3 116 145 144 134 122 108 108 114 95 96 144 152 148 155 149 150 146 158 151 166 136 145 146 176 55 50 63 68 75 83 93 101 114
61 125 83 70 66 44 83 39 351 5 54 48 32 73 61 284 173 173 153 131 128 123 119 127 116 107 129 154 160 168 192 191 192 195 206 152 108 106 108 110 92 67 67 80 84 94 101 107 121
42 48 72 80 108 141 42 359 342 58 42 10 36 73 356 241 234 210 172 150 150 138 128 130 141 147 137 166 170 175 176 193 220 203 135 118 114 109 104 103 93 89 80 79 87 97 116 135 143
89 56 57 93 140 166 119 336 338 36 289 55 113 139 220 226 204 234 216 159 162 152 153 148 152 162 163 170 177 191 198 206 181 158 141 135 127 118 112 107 97 107 112 95 102 116 146 156 175
94 72 81 114 137 135 94 336 44 336 271 252 166 191 193 227 187 210 261 170 169 169 173 166 164 168 174 172 188 188 200 186 181 181 177 164 154 143 239 168 154 159 183 145 143 151 178 185 194
47 78 101 103 194 118 42 31 320 274 267 271 224 229 190 180 195 186 230 217 190 175 184 179 178 183 188 186 191 182 218 205 210 214 206 227 257 266 252 200 181 168 175 165 158 166 180 187 210
65 57 54 7 2 356 48 260 245 245 247 264 239 260 233 198 189 191 190 226 209 214 185 188 187 190 192 197 185 200 225 230 220 223 227 245 246 245 238 238 229 195 175 172 181 180 182 199 223
76 87 122 227 276 243 196 275 299 294 242 254 250 247 259 248 196 194 191 199 211 233 214 195 202 198 200 210 215 221 220 228 233 240 246 240 240 232 231 238 232 224 215 213 220 208 210 225 233
84 144 169 188 189 176 186 224 232 255 261 227 240 253 247 237 227 204 208 195 201 214 236 215 215 212 212 214 228 237 238 228 233 246 240 248 252 241 220 228 231 230 229 218 220 219 209 217 229
80 150 180 173 177 174 194 199 218 215 236 241 240 240 242 239 238 227 218 219 212 198 218 222 225 221 218 225 230 230 233 231 232 234 247 233 220 227 225 238 250 245 242 222 206 204 205 210 217
89 154 287 164 193 190 168 210 231 250 258 257 258 239 235 235 234 236 237 236 237 230 224 228 224 227 224 224 226 228 224 228 228 228 223 231 223 233 231 226 229 227 229 222 215 201 198 196 199
119 155 166 191 217 219 220 230 186 254 213 236 249 246 236 228 227 234 229 230 228 228 229 227 225 225 226 226 224 224 225 222 222 219 217 221 221 221 224 226 225 216 212 213 209 205 200 195 187
147 77 233 229 210 217 210 213 239 197 186 215 243 259 258 251 245 242 237 233 228 222 229 231 226 219 217 217 215 214 216 214 216 212 211 211 212 216 221 219 218 223 218 211 205 201 194 196 189
223 196 6 193 177 204 78 280 313 208 190 206 219 241 262 265 256 251 246 238 229 226 220 219 225 229 225 218 217 211 210 206 206 208 211 216 219 216 218 218 219 218 215 209 208 202 196 191 192
7 328 349 347 196 143 174 272 205 199 209 226 222 226 242 256 256 253 246 243 237 239 235 228 225 224 214 211 215 216 212 211 212 214 220 219 223 225 221 221 222 222 219 220 216 213 209 205 198
323 348 328 304 309 259 239 259 262 217 212 227 233 239 233 232 238 243 246 246 241 236 238 238 235 234 230 225 223 222 218 218 218 223 225 231 230 226 225 225 225 223 220 213 211 208 204 207 206
273 276 299 306 21 351 260 280 269 218 212 227 227 227 240 256 272 259 246 242 241 242 244 244 242 236 233 229 226 225 225 227 231 239 240 236 235 233 229 227 227 225 222 218 215 212 209 206 207
17 335 338 284 315 345 309 304 284 190 222 222 226 228 232 237 242 251 253 248 243 244 242 238 237 234 233 230 229 232 240 250 253 247 240 236 233 234 235 233 231 228 225 221 219 217 215 213 207
46 55 332 262 317 295 322 303 324 19 222 241 242 248 242 236 233 233 237 242 245 241 240 240 240 239 238 236 235 238 244 247 245 242 237 239 244 245 241 237 234 232 231 229 230 229 228 226 222
338 65 312 315 8 326 17 280 323 341 271 231 240 241 242 240 241 246 246 242 242 243 241 242 243 242 242 239 239 239 242 245 243 238 245 251 249 246 245 240 238 237 235 235 234 233 232 233 231
261 348 284 298 6 10 344 53 267 7 320 286 253 249 251 247 241 244 249 257 261 257 253 249 246 245 245 243 242 244 245 245 244 247 251 246 244 244 245 243 240 240 238 238 236 236 237 236 236
304 330 106 6 72 37 284 83 297 333 296 324 325 310 273 260 255 250 255 262 263 263 260 257 253 251 247 247 245 245 247 249 248 246 244 243 245 247 244 243 242 240 240 239 239 239 238 239 239
3 24 354 3 11 230 12 30 247 290 296 289 332 341 343 305 281 269 259 258 262 263 264 264 261 259 257 256 254 252 251 250 250 250 250 250 247 243 242 241 241 241 243 242 240 240 240 240 242
10 88 133 265 279 280 341 249 253 276 348 11 348 347 346 355 330 298 289 279 273 273 271 268 266 266 263 262 262 259 257 256 254 254 252 253 254 253 250 247 245 244 242 242 243 243 243 242 242
305 61 130 101 31 44 268 285 320 6 23 22 24 31 24 25 10 354 330 306 292 286 281 278 276 277 273 271 267 264 262 261 261 259 258 257 257 257 255 251 248 247 245 243 243 243 244 243 244
32 316 62 19 12 307 290 291 239 329 321 358 352 8 347 351 350 344 337 328 319 298 285 275 278 279 280 278 275 272 269 266 265 262 262 262 260 258 258 256 251 248 247 245 244 243 243 242 244
50 40 32 118 144 189 275 257 218 257 274 310 314 329 340 336 341 338 331 324 313 304 293 285 286 286 284 284 286 282 277 274 271 267 266 264 263 261 259 259 257 253 249 246 244 244 244 243 244
201 163 141 117 274 226 210 266 261 281 282 322 331 325 328 330 327 327 329 332 328 321 299 297 297 296 297 297 294 291 288 281 277 275 274 271 267 265 263 261 259 257 254 250 246 244 244 243 242